Weather History for Ely, NV

Change the Weather History Date:

Monday, January 13, 2014

  Actual Average Record
Temperature  
Mean Temperature 31 °F 25 °F  
Max Temperature 46 °F 40 °F 60 °F (1996)
Min Temperature 15 °F 11 °F -22 °F (2013)
Degree Days  
Heating Degree Days 34 40  
Month to date heating degree days 446 520  
Since 1 July heating degree days 3535 3620  
Cooling Degree Days 0 0  
Month to date cooling degree days 0 0  
Year to date cooling degree days 0 0  
Moisture  
Dew Point 18 °F    
Average Humidity 64    
Maximum Humidity 88    
Minimum Humidity 40    
Precipitation  
Precipitation 0.00 in 0.02 in 1.50 in (1907)
Month to date precipitation 0.04 0.30  
Year to date precipitation 0.04 0.30  
Snow  
Snow 0.00 in 0.30 in 15.00 in (1907)
Month to date snowfall 1.2 4.1  
Since 1 July snowfall 27.0 22.0  
Snow Depth 1.00 in    
Sea Level Pressure  
Sea Level Pressure 30.54 in    
Wind  
Wind Speed 7 mph (NW)    
Max Wind Speed 17 mph    
Max Gust Speed -    
Visibility 10 miles    
Events      
T = Trace of Precipitation, MM = Missing Value Source: NWS Daily Summary

Daily Weather History Graph

Daily Weather History Graph

Search for Another Location

Airport:

Trip Planner

Search our weather history database for the weather conditions in past years. The results will help you decide how hot, cold, wet, or windy it might be!

Date:

Astronomy

Jan. 13, 2014 Rise Set
Actual Time 6:58 AM PST 4:38 PM PST
Civil Twilight 6:28 AM PST 5:08 PM PST
Nautical Twilight 5:55 AM PST 5:41 PM PST
Astronomical Twilight 5:23 AM PST 6:13 PM PST
Moon 2:56 PM PST (1/13) 4:50 AM PST (1/13)
Length of Visible Light 10h 39m
Length of Day
9h 40m
Waxing Gibbous, 95% of the Moon is Illuminated
Jan 13
Waxing Gibbous
Jan 15
Full
Jan 23
Last Quarter
Jan 30
New
Feb 6
First Quarter

Hourly Weather History & Observations

Time (PST) Temp. Windchill Dew Point Humidity Pressure Visibility Wind Dir Wind Speed Gust Speed Precip Events Conditions
12:53 AM 18.0 °F - 14.0 °F 84% 30.48 in 10.0 mi North - - N/A   Clear
1:53 AM 16.0 °F - 12.9 °F 88% 30.51 in 10.0 mi North - - N/A   Clear
2:53 AM 15.1 °F - 12.0 °F 88% 30.53 in 10.0 mi North - - N/A   Clear
3:53 AM 15.1 °F - 12.0 °F 88% 30.55 in 10.0 mi North - - N/A   Clear
4:53 AM 16.0 °F - 12.0 °F 84% 30.56 in 10.0 mi North - - N/A   Clear
5:53 AM 17.1 °F - 14.0 °F 88% 30.57 in 10.0 mi North - - N/A   Mostly Cloudy
6:53 AM 15.1 °F - 12.0 °F 88% 30.59 in 10.0 mi North - - N/A   Clear
7:53 AM 19.0 °F - 15.1 °F 85% 30.61 in 10.0 mi North - - N/A   Clear
8:53 AM 27.0 °F - 19.0 °F 72% 30.59 in 10.0 mi North - - N/A   Clear
9:53 AM 34.0 °F 31.0 °F 21.0 °F 59% 30.58 in 10.0 mi ESE 3.5 mph - N/A   Clear
10:53 AM 39.0 °F 34.0 °F 23.0 °F 53% 30.55 in 10.0 mi NW 6.9 mph - N/A   Clear
11:53 AM 39.9 °F 37.8 °F 23.0 °F 51% 30.51 in 10.0 mi NE 3.5 mph - N/A   Clear
12:53 PM 42.1 °F - 21.9 °F 45% 30.48 in 10.0 mi Calm Calm - N/A   Clear
1:53 PM 44.1 °F 42.5 °F 21.9 °F 42% 30.48 in 10.0 mi East 3.5 mph - N/A   Clear
2:53 PM 44.1 °F 38.6 °F 21.0 °F 40% 30.48 in 10.0 mi NW 10.4 mph - N/A   Clear
3:53 PM 41.0 °F 34.3 °F 21.0 °F 45% 30.51 in 10.0 mi WNW 11.5 mph - N/A   Clear
4:53 PM 34.0 °F 27.2 °F 23.0 °F 64% 30.55 in 10.0 mi WNW 8.1 mph - N/A   Clear
5:53 PM 34.0 °F 26.0 °F 21.0 °F 59% 30.56 in 10.0 mi WNW 10.4 mph - N/A   Clear
6:53 PM 30.9 °F 22.8 °F 21.0 °F 67% 30.61 in 10.0 mi WNW 9.2 mph - N/A   Clear
7:53 PM 30.0 °F 23.2 °F 19.9 °F 66% 30.59 in 10.0 mi Variable 6.9 mph - N/A   Clear
8:53 PM 28.9 °F - 19.9 °F 69% 30.57 in 10.0 mi North - - N/A   Clear
9:53 PM 30.9 °F 24.3 °F 19.0 °F 61% 30.53 in 10.0 mi Variable 6.9 mph - N/A   Partly Cloudy
10:53 PM 27.0 °F 17.3 °F 19.0 °F 72% 30.54 in 10.0 mi WNW 10.4 mph - N/A   Clear
11:53 PM 25.0 °F 18.1 °F 19.0 °F 78% 30.53 in 10.0 mi North 5.8 mph - N/A   Clear